Location: Powder Track
(41.8531°N, 72.3584°W)
Time: 18:28:31
(UTC+00:00)

Vanguard 1 Rocket - Pass Details

Date: 12 August 2021
Orbit: 650 x 4226 km, 34.3° (Epoch: 20 September)

Event Time Altitude Azimuth Distance (km) Brightness Sun altitude
Rises 17:39:49 0° 282° (WNW) 7,684 12.2 61.2°
Reaches altitude 10° 17:46:17 10° 276° (W) 6,131 11.9 60.7°
Maximum altitude 18:00:41 35° 219° (SW) 3,000 11.5 59.3°
Drops below altitude 10° 18:08:56 10° 157° (SSE) 3,494 10.8 58.5°
Sets 18:11:32 0° 147° (SSE) 4,129 10.9 58.2°
